CW9687 Weather Reports


Display with metric or nautical units.
time (UTC)temp
F
wind
direction
speed
MPH
gust
MPH
rain 1hr
in
rain 24hr
in
rain mn
in
humidity
%
barometer
mb
20260507083507 55 102 0.0 1.0 0.00 0.00 0.00 85 1018.1
20260507083007 55 102 0.0 1.0 0.00 0.00 0.00 85 1018.1
20260507082506 55 102 0.0 2.0 0.00 0.00 0.00 85 1018.2
20260507082005 55 102 0.0 4.0 0.00 0.00 0.00 85 1018.2
20260507081508 55 102 0.0 4.0 0.00 0.00 0.00 84 1018.2
20260507081006 55 102 1.0 6.0 0.00 0.00 0.00 84 1018.2
20260507080505 55 104 2.0 6.0 0.00 0.00 0.00 84 1018.2
20260507080007 55 93 1.0 3.0 0.00 0.00 0.00 84 1018.3
20260507075507 55 66 0.0 3.0 0.00 0.00 0.00 84 1018.3
20260507075004 55 66 0.0 3.0 0.00 0.00 0.00 84 1018.4
20260507074502 55 49 1.0 3.0 0.00 0.00 0.00 84 1018.5
20260507074004 55 42 0.0 2.0 0.00 0.00 0.00 84 1018.5
20260507073501 55 41 0.0 1.0 0.00 0.00 0.00 84 1018.5
20260507073001 55 40 0.0 0.0 0.00 0.00 0.00 84 1018.6
20260507072501 55 40 0.0 1.0 0.00 0.00 0.00 84 1018.6
20260507072103 55 40 0.0 2.0 0.00 0.00 0.00 84 1018.6
20260507072000 55 40 0.0 2.0 0.00 0.00 0.00 84 1018.6
20260507071602 55 40 0.0 2.0 0.00 0.00 0.00 84 1018.7
20260507071100 56 40 0.0 3.0 0.00 0.00 0.00 84 1018.6
20260507070559 56 40 0.0 3.0 0.00 0.00 0.00 84 1018.7
20260507070058 56 40 0.0 1.0 0.00 0.00 0.00 84 1018.6
20260507065557 56 40 0.0 3.0 0.00 0.00 0.00 84 1018.7
20260507065057 56 40 0.0 6.0 0.00 0.00 0.00 84 1018.6
20260507064557 56 33 2.0 6.0 0.00 0.00 0.00 84 1018.7
20260507064057 56 70 0.0 5.0 0.00 0.00 0.00 84 1018.7
20260507063557 56 70 0.0 5.0 0.00 0.00 0.00 83 1018.7
20260507063058 56 94 1.0 4.0 0.00 0.00 0.00 83 1018.6
20260507062556 56 42 0.0 8.0 0.00 0.00 0.00 83 1018.6
20260507062056 56 46 0.0 3.0 0.00 0.00 0.00 83 1018.6
20260507061556 55 46 0.0 0.0 0.00 0.00 0.00 83 1018.6
20260507061056 55 46 0.0 4.0 0.00 0.00 0.00 83 1018.6
20260507060555 55 46 1.0 4.0 0.00 0.00 0.00 83 1018.5
20260507060055 55 54 0.0 0.0 0.00 0.00 0.00 83 1018.6
20260507055555 55 54 0.0 2.0 0.00 0.00 0.00 82 1018.6
20260507055056 55 54 0.0 3.0 0.00 0.00 0.00 82 1018.6
20260507054637 55 54 0.0 4.0 0.00 0.00 0.00 82 1018.6
20260507054055 55 54 1.0 4.0 0.00 0.00 0.00 81 1018.6
20260507053555 56 54 0.0 4.0 0.00 0.00 0.00 81 1018.5
20260507053055 56 54 0.0 4.0 0.00 0.00 0.00 81 1018.6
20260507052555 56 68 0.0 2.0 0.00 0.00 0.00 81 1018.6
20260507052055 56 68 0.0 0.0 0.00 0.00 0.00 80 1018.6
20260507051554 56 68 0.0 0.0 0.00 0.00 0.00 80 1018.7
20260507051054 56 68 0.0 1.0 0.00 0.00 0.00 80 1018.5
20260507050555 56 68 0.0 0.0 0.00 0.00 0.00 80 1018.7
20260507050035 56 68 0.0 2.0 0.00 0.00 0.00 79 1018.6
20260507045536 56 68 0.0 2.0 0.00 0.00 0.00 79 1018.5
20260507045035 56 68 0.0 1.0 0.00 0.00 0.00 79 1018.6
20260507044538 57 68 0.0 0.0 0.00 0.00 0.00 78 1018.5
20260507044038 57 68 0.0 0.0 0.00 0.00 0.00 78 1018.5
20260507043534 57 68 0.0 1.0 0.00 0.00 0.00 78 1018.7
20260507043034 57 68 0.0 1.0 0.00 0.00 0.00 78 1018.6
20260507042534 57 68 0.0 1.0 0.00 0.00 0.00 78 1018.6
20260507042033 57 68 0.0 2.0 0.00 0.00 0.00 78 1018.5
20260507041533 57 67 0.0 2.0 0.00 0.00 0.00 77 1018.5
20260507041033 58 67 0.0 4.0 0.00 0.00 0.00 77 1018.4
20260507040533 58 59 0.0 4.0 0.00 0.00 0.00 76 1018.3
20260507040027 58 59 0.0 3.0 0.00 0.00 0.00 76 1018.3
20260507035528 58 58 0.0 8.0 0.00 0.00 0.00 76 1018.3
20260507035027 58 25 1.0 8.0 0.00 0.00 0.00 75 1018.2
20260507034527 58 54 1.0 11.0 0.00 0.00 0.00 75 1018.2
20260507034026 58 48 0.0 11.0 0.00 0.00 0.00 74 1018.0
20260507033526 59 78 0.0 9.0 0.00 0.00 0.00 74 1018.0
20260507033026 59 39 1.0 9.0 0.00 0.00 0.00 73 1017.9
20260507032526 59 42 1.0 9.0 0.00 0.00 0.00 73 1018.0
20260507032025 59 42 2.0 9.0 0.00 0.00 0.00 72 1017.9
20260507031525 60 51 2.0 7.0 0.00 0.00 0.00 71 1017.7
20260507031029 60 356 1.0 9.0 0.00 0.00 0.00 71 1017.6
20260507030525 60 13 2.0 9.0 0.00 0.00 0.00 70 1017.5
20260507030019 61 39 0.0 7.0 0.00 0.00 0.00 70 1017.6
20260507025519 61 24 1.0 6.0 0.00 0.00 0.00 69 1017.5
20260507025019 61 54 0.0 5.0 0.00 0.00 0.00 69 1017.5
20260507024523 61 79 2.0 8.0 0.00 0.00 0.00 68 1017.3
20260507024025 62 77 2.0 9.0 0.00 0.00 0.00 68 1017.3
20260507023517 62 43 2.0 11.0 0.00 0.00 0.00 67 1017.3
20260507023017 63 56 2.0 11.0 0.00 0.00 0.00 66 1017.3
20260507022521 63 8 1.0 10.0 0.00 0.00 0.00 66 1017.4
20260507022020 63 4 5.0 10.0 0.00 0.00 0.00 65 1017.3
20260507021521 64 47 0.0 7.0 0.00 0.00 0.00 65 1017.3
20260507021017 64 3 1.0 8.0 0.00 0.00 0.00 64 1017.2
20260507020517 64 36 1.0 9.0 0.00 0.00 0.00 63 1017.1
20260507020100 65 352 2.0 9.0 0.00 0.00 0.00 63 1017.1
20260507015557 65 37 1.0 7.0 0.00 0.00 0.00 63 1017.1
20260507015057 65 13 1.0 7.0 0.00 0.00 0.00 63 1017.1
20260507014604 66 40 0.0 8.0 0.00 0.00 0.00 63 1017.2
20260507014057 66 15 1.0 8.0 0.00 0.00 0.00 62 1017.3
20260507013556 66 357 0.0 8.0 0.00 0.00 0.00 62 1017.2
20260507013056 67 38 0.0 8.0 0.00 0.00 0.00 61 1017.2
20260507012556 67 73 0.0 7.0 0.00 0.00 0.00 61 1017.0
20260507012100 67 48 1.0 7.0 0.00 0.00 0.00 61 1017.1
20260507011555 68 321 0.0 8.0 0.00 0.00 0.00 60 1017.2
20260507011059 68 28 1.0 8.0 0.00 0.00 0.00 60 1017.1
20260507010555 68 338 2.0 6.0 0.00 0.00 0.00 60 1017.1
20260507010049 68 344 0.0 8.0 0.00 0.00 0.00 60 1017.2
20260507005549 69 4 2.0 7.0 0.00 0.00 0.00 59 1017.2
20260507005048 69 39 1.0 7.0 0.00 0.00 0.00 59 1017.2
20260507004548 69 282 1.0 9.0 0.00 0.00 0.00 59 1017.1
20260507004048 70 29 1.0 8.0 0.00 0.00 0.00 59 1017.1
20260507003547 70 41 1.0 7.0 0.00 0.00 0.00 58 1017.0
20260507003051 70 29 1.0 10.0 0.00 0.00 0.00 58 1017.0
20260507002547 70 354 1.0 10.0 0.00 0.00 0.00 58 1017.1
20260507002047 70 12 3.0 10.0 0.00 0.00 0.00 58 1017.0
20260507001546 70 323 3.0 10.0 0.00 0.00 0.00 58 1017.0
20260507001044 70 33 0.0 6.0 0.00 0.00 0.00 59 1016.9
20260507000547 71 327 1.0 8.0 0.00 0.00 0.00 59 1016.9
20260507000038 71 306 1.0 9.0 0.00 0.00 0.00 60 1016.9
20260506235534 72 308 3.0 9.0 0.00 0.00 0.00 59 1016.9
20260506235033 72 314 2.0 10.0 0.00 0.00 0.00 59 1016.9
20260506234532 72 313 4.0 10.0 0.00 0.00 0.00 58 1016.8
20260506234032 73 299 3.0 10.0 0.00 0.00 0.00 57 1016.8
20260506233533 73 299 1.0 10.0 0.00 0.00 0.00 55 1016.8
20260506233036 73 302 3.0 9.0 0.00 0.00 0.00 56 1016.8
20260506232531 73 324 1.0 11.0 0.00 0.00 0.00 56 1016.8
20260506232031 73 307 2.0 10.0 0.00 0.00 0.00 56 1016.8
20260506231531 73 44 2.0 10.0 0.00 0.00 0.00 56 1016.7
20260506231031 74 50 2.0 14.0 0.00 0.00 0.00 56 1016.8
20260506230529 74 23 1.0 9.0 0.00 0.00 0.00 56 1016.9
20260506230023 73 22 1.0 11.0 0.00 0.00 0.00 57 1016.8
20260506225527 73 35 4.0 14.0 0.00 0.00 0.00 56 1016.8
20260506225023 74 10 4.0 15.0 0.00 0.00 0.00 55 1016.8
20260506224521 74 345 4.0 14.0 0.00 0.00 0.00 56 1017.0
20260506224021 74 100 3.0 14.0 0.00 0.00 0.00 56 1017.0
20260506223521 74 21 4.0 15.0 0.00 0.00 0.00 56 1016.9
20260506223021 74 8 3.0 15.0 0.00 0.00 0.00 55 1016.9
20260506222521 74 76 5.0 14.0 0.00 0.00 0.00 55 1016.9
20260506222023 74 40 4.0 15.0 0.00 0.00 0.00 56 1017.0
20260506221520 74 10 2.0 13.0 0.00 0.00 0.00 56 1017.0
20260506221021 74 27 3.0 12.0 0.00 0.00 0.00 55 1017.1
20260506220519 74 81 1.0 11.0 0.00 0.00 0.00 55 1017.1
20260506220056 75 24 3.0 12.0 0.00 0.00 0.00 55 1017.1
20260506215554 75 13 3.0 15.0 0.00 0.00 0.00 55 1017.1
20260506215054 75 73 4.0 15.0 0.00 0.00 0.00 56 1017.3
20260506214553 75 316 3.0 10.0 0.00 0.00 0.00 55 1017.4
20260506214053 75 322 3.0 12.0 0.00 0.00 0.00 55 1017.4
20260506213554 75 43 1.0 10.0 0.00 0.00 0.00 56 1017.4
20260506213110 75 1 4.0 14.0 0.00 0.00 0.00 56 1017.5
20260506212552 75 336 3.0 14.0 0.00 0.00 0.00 56 1017.5
20260506212052 75 349 3.0 13.0 0.00 0.00 0.00 56 1017.5
20260506211551 75 354 4.0 13.0 0.00 0.00 0.00 56 1017.6
20260506211050 75 227 1.0 10.0 0.00 0.00 0.00 56 1017.6
20260506210549 75 13 3.0 10.0 0.00 0.00 0.00 56 1017.7
20260506210028 74 48 3.0 14.0 0.00 0.00 0.00 57 1017.7
20260506205526 74 2 3.0 14.0 0.00 0.00 0.00 58 1017.6
20260506205023 74 360 3.0 12.0 0.00 0.00 0.00 59 1017.7
20260506204524 73 330 0.0 10.0 0.00 0.00 0.00 61 1017.7
20260506204019 73 307 4.0 12.0 0.00 0.00 0.00 60 1017.7
20260506203518 73 329 6.0 12.0 0.00 0.00 0.00 60 1017.8
20260506203019 72 318 3.0 15.0 0.00 0.00 0.00 61 1017.8
20260506202519 72 308 8.0 16.0 0.00 0.00 0.00 60 1017.8
20260506202016 73 333 6.0 14.0 0.00 0.00 0.00 59 1017.8
20260506201518 73 279 4.0 13.0 0.00 0.00 0.00 60 1017.8
20260506201013 72 295 3.0 13.0 0.00 0.00 0.00 60 1017.8
20260506200519 72 298 6.0 12.0 0.00 0.00 0.00 60 1017.8
20260506200054 72 302 7.0 13.0 0.00 0.00 0.00 60 1017.8
20260506195553 72 304 6.0 13.0 0.00 0.00 0.00 59 1017.9
20260506195055 72 286 3.0 12.0 0.00 0.00 0.00 60 1017.8
20260506194600 71 301 4.0 12.0 0.00 0.00 0.00 60 1018.0
20260506194052 71 299 3.0 11.0 0.00 0.00 0.00 60 1017.9
20260506193547 71 291 5.0 10.0 0.00 0.00 0.00 60 1017.9
20260506193048 71 339 4.0 14.0 0.00 0.00 0.00 61 1018.0
20260506192546 71 283 7.0 14.0 0.00 0.00 0.00 61 1018.1
20260506192045 71 308 7.0 12.0 0.00 0.00 0.00 61 1018.1
20260506191544 70 311 5.0 12.0 0.00 0.00 0.00 63 1018.1
20260506191043 70 312 4.0 12.0 0.00 0.00 0.00 62 1018.2
20260506190543 70 289 6.0 14.0 0.00 0.00 0.00 63 1018.2
20260506190030 70 292 6.0 14.0 0.00 0.00 0.00 62 1018.2
20260506185530 70 275 7.0 14.0 0.00 0.00 0.00 62 1018.2
20260506185028 70 323 5.0 11.0 0.00 0.00 0.00 63 1018.3
20260506184527 70 299 3.0 11.0 0.00 0.00 0.00 63 1018.3
20260506184026 70 339 5.0 11.0 0.00 0.00 0.00 63 1018.4
20260506183525 70 289 4.0 10.0 0.00 0.00 0.00 63 1018.4
20260506183023 70 314 5.0 12.0 0.00 0.00 0.00 63 1018.4
20260506182522 69 298 7.0 13.0 0.00 0.00 0.00 63 1018.4
20260506182023 69 306 6.0 14.0 0.00 0.00 0.00 64 1018.5
20260506181520 69 311 7.0 14.0 0.00 0.00 0.00 64 1018.5
20260506181020 68 316 5.0 12.0 0.00 0.00 0.00 65 1018.5
20260506180519 68 308 4.0 10.0 0.00 0.00 0.00 65 1018.5
20260506180010 68 310 6.0 10.0 0.00 0.00 0.00 65 1018.6
20260506175508 68 303 4.0 9.0 0.00 0.00 0.00 65 1018.6
20260506175007 68 270 3.0 11.0 0.00 0.00 0.00 66 1018.7
20260506174506 68 310 3.0 10.0 0.00 0.00 0.00 67 1018.6
20260506174005 67 309 3.0 10.0 0.00 0.00 0.00 67 1018.6
20260506173505 67 304 2.0 10.0 0.00 0.00 0.00 67 1018.7
20260506173003 67 276 3.0 9.0 0.00 0.00 0.00 67 1018.6
20260506172502 67 296 2.0 10.0 0.00 0.00 0.00 68 1018.6
20260506172059 67 266 6.0 11.0 0.00 0.00 0.00 68 1018.7
20260506171604 67 283 5.0 11.0 0.00 0.00 0.00 68 1018.7
20260506171058 67 283 4.0 9.0 0.00 0.00 0.00 67 1018.7
20260506170556 68 272 2.0 8.0 0.00 0.00 0.00 68 1018.7
20260506165547 68 290 3.0 9.0 0.00 0.00 0.00 68 1018.6
20260506165046 68 327 2.0 9.0 0.00 0.00 0.00 68 1018.6
20260506164545 67 332 4.0 8.0 0.00 0.00 0.00 68 1018.5
20260506164047 67 332 0.0 6.0 0.00 0.00 0.00 68 1018.6
20260506163544 66 359 0.0 5.0 0.00 0.00 0.00 68 1018.5
20260506163057 66 330 1.0 4.0 0.00 0.00 0.00 69 1018.5
20260506162542 66 17 0.0 4.0 0.00 0.00 0.00 71 1018.6
20260506162041 65 35 0.0 4.0 0.00 0.00 0.00 70 1018.7
20260506161537 64 35 0.0 6.0 0.00 0.00 0.00 72 1018.7
20260506161037 64 351 1.0 6.0 0.00 0.00 0.00 72 1018.8
20260506160533 63 347 1.0 5.0 0.00 0.00 0.00 73 1018.7
20260506160025 63 298 0.0 6.0 0.00 0.00 0.00 73 1018.8
20260506155523 62 23 1.0 6.0 0.00 0.00 0.00 74 1018.8
20260506155022 62 351 2.0 5.0 0.00 0.00 0.00 75 1018.8
20260506154520 62 6 1.0 4.0 0.00 0.00 0.00 75 1018.8
20260506154021 62 19 0.0 3.0 0.00 0.00 0.00 76 1018.8
20260506153516 61 22 0.0 2.0 0.00 0.00 0.00 77 1019.0
20260506153015 61 6 0.0 0.0 0.00 0.00 0.00 78 1018.9
20260506152514 60 243 0.0 0.0 0.00 0.00 0.00 79 1019.0
20260506152014 59 242 0.0 4.0 0.00 0.00 0.00 80 1019.1
20260506151511 59 314 1.0 4.0 0.00 0.00 0.00 80 1018.9
20260506151010 58 210 0.0 2.0 0.00 0.00 0.00 81 1019.0
20260506150509 58 200 0.0 2.0 0.00 0.00 0.00 82 1019.1
20260506150101 57 135 0.0 1.0 0.00 0.00 0.00 82 1019.0
20260506145554 56 135 0.0 2.0 0.00 0.00 0.00 83 1019.1
20260506145054 56 135 0.0 3.0 0.00 0.00 0.00 83 1018.9
20260506144553 55 173 1.0 4.0 0.00 0.00 0.00 84 1019.0
20260506144051 55 171 1.0 4.0 0.00 0.00 0.00 84 1018.9
20260506143549 54 171 0.0 3.0 0.00 0.00 0.00 85 1019.0
20260506143101 54 76 1.0 3.0 0.00 0.00 0.00 86 1018.9
20260506142547 53 89 0.0 2.0 0.00 0.00 0.00 86 1019.0
20260506142045 53 88 0.0 3.0 0.00 0.00 0.00 87 1018.9
20260506141544 52 88 0.0 3.0 0.00 0.00 0.00 87 1018.8
20260506141046 52 167 1.0 3.0 0.00 0.00 0.00 87 1018.8
20260506140542 51 162 1.0 3.0 0.00 0.00 0.00 87 1018.8
20260506140015 50 215 0.0 1.0 0.00 0.00 0.00 87 1018.7
20260506135512 49 215 0.0 1.0 0.00 0.00 0.00 87 1018.7
20260506135013 49 78 0.0 0.0 0.00 0.00 0.00 86 1018.6
20260506134510 49 78 0.0 0.0 0.00 0.00 0.00 86 1018.6
20260506134011 49 78 0.0 0.0 0.00 0.00 0.00 86 1018.6
20260506133508 49 78 0.0 2.0 0.00 0.00 0.00 86 1018.7
20260506133009 49 78 0.0 3.0 0.00 0.00 0.00 86 1018.6
20260506132506 49 78 0.0 4.0 0.00 0.00 0.00 86 1018.5
20260506132006 49 134 0.0 3.0 0.00 0.00 0.00 86 1018.3
20260506131508 49 139 0.0 0.0 0.00 0.00 0.00 86 1018.3
20260506131004 49 139 0.0 0.0 0.00 0.00 0.00 86 1018.2
20260506130509 49 139 0.0 1.0 0.00 0.00 0.00 86 1018.2
20260506130005 49 217 0.0 1.0 0.00 0.00 0.00 86 1018.1
20260506125504 49 109 0.0 3.0 0.00 0.00 0.00 86 1018.0
20260506125004 48 109 0.0 3.0 0.00 0.00 0.00 86 1017.9
20260506124504 49 109 0.0 3.0 0.00 0.00 0.00 86 1018.0
20260506124004 49 109 0.0 3.0 0.00 0.00 0.00 86 1018.0
20260506123504 49 108 0.0 3.0 0.00 0.00 0.00 86 1017.9
20260506123003 49 108 0.0 4.0 0.00 0.00 0.00 86 1017.9
20260506122502 48 108 1.0 4.0 0.00 0.00 0.00 85 1017.9
20260506122001 48 108 0.0 3.0 0.00 0.00 0.00 85 1018.0
20260506121502 49 108 0.0 3.0 0.00 0.00 0.00 85 1018.2
20260506121001 49 108 0.0 4.0 0.00 0.00 0.00 85 1018.1
20260506120501 49 108 0.0 4.0 0.00 0.00 0.00 85 1018.0
20260506115601 49 108 0.0 4.0 0.00 0.00 0.00 85 1018.2
20260506115100 49 108 1.0 4.0 0.00 0.00 0.00 85 1018.1
20260506114607 49 108 2.0 4.0 0.00 0.00 0.00 85 1018.2
20260506114101 49 109 1.0 4.0 0.00 0.00 0.00 85 1018.2
20260506113558 49 109 1.0 3.0 0.00 0.00 0.00 85 1018.3
20260506113057 49 109 1.0 3.0 0.00 0.00 0.00 85 1018.3
20260506112557 49 109 1.0 3.0 0.00 0.00 0.00 85 1018.3
20260506112055 49 109 0.0 2.0 0.00 0.00 0.00 85 1018.3
20260506111555 49 109 0.0 2.0 0.00 0.00 0.00 84 1018.3
20260506111055 49 109 0.0 2.0 0.00 0.00 0.00 85 1018.2
20260506110554 49 109 0.0 0.0 0.00 0.00 0.00 85 1018.2
20260506110100 49 109 0.0 0.0 0.00 0.00 0.00 85 1018.1
20260506105556 50 109 0.0 2.0 0.00 0.00 0.00 85 1018.2
20260506105052 50 109 0.0 3.0 0.00 0.00 0.00 85 1018.2
20260506104551 50 109 0.0 3.0 0.00 0.00 0.00 85 1018.2
20260506104050 50 109 0.0 0.0 0.00 0.00 0.00 85 1018.1
20260506103552 50 109 0.0 0.0 0.00 0.00 0.00 85 1018.2
20260506103049 50 109 0.0 0.0 0.00 0.00 0.00 85 1018.1
20260506102549 50 109 0.0 0.0 0.00 0.00 0.00 85 1018.1
20260506102049 50 109 0.0 1.0 0.00 0.00 0.00 85 1018.1
20260506101554 51 109 0.0 4.0 0.00 0.00 0.00 85 1018.2
20260506101051 51 109 1.0 6.0 0.00 0.00 0.00 85 1018.0
20260506100551 50 111 2.0 6.0 0.00 0.00 0.00 85 1017.9
20260506100048 50 102 2.0 6.0 0.00 0.00 0.00 85 1018.0
20260506095552 50 103 2.0 6.0 0.00 0.00 0.00 85 1018.0
20260506095047 50 90 3.0 5.0 0.00 0.00 0.00 85 1018.1
20260506094606 51 96 0.0 4.0 0.00 0.00 0.00 85 1017.9
20260506094045 51 96 0.0 3.0 0.00 0.00 0.00 85 1018.0
20260506093546 51 96 0.0 3.0 0.00 0.00 0.00 85 1018.0
20260506093052 51 96 1.0 6.0 0.00 0.00 0.00 85 1018.1
20260506092545 51 96 2.0 7.0 0.00 0.00 0.00 85 1018.1
20260506092045 51 99 3.0 7.0 0.00 0.00 0.00 85 1018.1
20260506091544 51 93 3.0 6.0 0.00 0.00 0.00 85 1018.0
20260506091043 51 93 3.0 6.0 0.00 0.00 0.00 85 1018.2
20260506090542 51 89 3.0 5.0 0.00 0.00 0.00 84 1018.2
20260506090041 51 94 1.0 3.0 0.00 0.00 0.00 84 1018.3
20260506085539 51 94 0.0 4.0 0.00 0.00 0.00 84 1018.3
20260506085040 51 94 2.0 4.0 0.00 0.00 0.00 84 1018.3
20260506084539 51 94 0.0 2.0 0.00 0.00 0.00 84 1018.3
20260506084041 51 94 0.0 3.0 0.00 0.00 0.00 84 1018.4